Regional Weather Roundup
Issued by NWS Little Rock, AR

Home | Current Version | Previous Version | Text Only | Print | Product List | Glossary On
Versions: 1 2 3 4 5 6 7 8 9 10 11 12 13 14 15 16 17 18 19 20 21 22 23 24 25 26 27 28 29 30 31 32 33 34 35 36 37 38 39 40 41
000
ASUS44 KLZK 021305
RWRLZK

WEATHER ROUNDUP FOR ARKANSAS
NATIONAL WEATHER SERVICE LITTLE ROCK AR
800 AM CDT THU OCT 02 2014

NOTE: "FAIR" INDICATES FEW OR NO CLOUDS BELOW 12,000 FEET WITH NO
SIGNIFICANT WEATHER AND/OR OBSTRUCTIONS TO VISIBILITY.

ARZ001-003-010-029-021400-
NORTHWEST ARKANSAS

CITY           SKY/WX    TMP DP  RH WIND       PRES   REMARKS
FAYETTEVILLE   CLOUDY    74  70  87 S12       29.85R
FORT SMITH     MOCLDY    75  70  84 SE5       29.82R
HARRISON       CLOUDY    75  69  81 S5        29.89R
BENTONVILLE    CLOUDY    73  68  83 S7        29.85S
ROGERS         CLOUDY    74  68  81 S7        29.86R
SILOAM SPGS    CLOUDY    73  66  78 S8        29.84S
HIGHFILL       CLOUDY    73  70  90 S7        29.84R
SPRINGDALE     CLOUDY    75  70  83 S10       29.87R
$$

ARZ004-005-016-021400-
NORTH CENTRAL ARKANSAS

CITY           SKY/WX    TMP DP  RH WIND       PRES   REMARKS
BATESVILLE     CLOUDY   N/A N/A N/A S8        29.89S
FLIPPIN        MOCLDY    72  64  78 E3        29.87R
MTN HOME       MOCLDY    74  70  87 E3        29.88R
$$

ARZ040-041-021400-
WEST CENTRAL ARKANSAS

CITY           SKY/WX    TMP DP  RH WIND       PRES   REMARKS
MENA           CLOUDY    77  72  83 S7        29.88S
MOUNT IDA      CLOUDY    77  72  84 VRB5      29.86R
$$

ARZ009-017-025-026-028-021400-
NORTHEAST ARKANSAS

CITY           SKY/WX    TMP DP  RH WIND       PRES   REMARKS
CORNING          N/A     70  68  94 SE8       29.92R
JONESBORO      PTSUNNY   69  67  93 MISG      29.91R
NEWPORT        CLOUDY    74  72  93 S12G20    29.92R FOG
WALNUT RIDGE   CLOUDY    73  68  83 S10       29.90R
BLYTHEVILLE    PTSUNNY   72  67  84 S9        29.94R
NW BLYTHEVILLE PTSUNNY   70  64  83 SE7       29.93
$$

ARZ022-023-033-042-044-021400-
CENTRAL ARKANSAS

CITY           SKY/WX    TMP DP  RH WIND       PRES   REMARKS
LITTLE ROCK    CLOUDY    76  71  85 S7        29.90R
N LITTLE ROCK    N/A     74  74  98 S6        29.90R
JACKSONVILLE   CLOUDY    74  73  96 S6        29.90R
SEARCY         CLOUDY    74  72  93 S6        29.91R FOG
HOT SPRINGS    CLOUDY    75  73  93 S5        29.89S FOG
RUSSELLVILLE   CLOUDY    75  71  87 CALM      29.87R
CLINTON        CLOUDY    75  73  94 CALM      29.88S FOG
$$

ARZ036-021400-
EAST ARKANSAS

CITY           SKY/WX    TMP DP  RH WIND       PRES   REMARKS
WEST MEMPHIS   CLOUDY    73  72  96 S12       29.93R
$$

ARZ050-053-066-070-073-021400-
SOUTHWEST ARKANSAS

CITY           SKY/WX    TMP DP  RH WIND       PRES   REMARKS
ARKADELPHIA    PTSUNNY   75  75 100 S3        29.90R
CAMDEN         SUNNY     75  72  88 S6        29.91R
TEXARKANA      CLEAR     75  74  96 S6        29.89R
EL DORADO      CLOUDY    75  73  93 SE6       29.92R
DE QUEEN       CLOUDY    74  73  97 S3        29.86R
$$

ARZ056-057-069-021400-
SOUTHEAST ARKANSAS

CITY           SKY/WX    TMP DP  RH WIND       PRES   REMARKS
PINE BLUFF     CLOUDY    75  72  90 S8        29.92R
STUTTGART      CLOUDY   N/A N/A N/A S8        29.92R
MONTICELLO     CLOUDY    76  73  91 S7        29.93R

$$




USA.gov is the U.S. government's official web portal to all federal, state and local government web resources and services.